Year,Month,Day,Hour,Minute,Value (Times are PST for temperature in C)
2018,09,27,00,00,15.80
2018,09,27,00,01,15.80
2018,09,27,00,02,15.80
2018,09,27,00,03,15.70
2018,09,27,00,04,15.70
2018,09,27,00,05,15.70
2018,09,27,00,06,15.70
2018,09,27,00,07,15.70
2018,09,27,00,08,15.70
2018,09,27,00,09,15.60
2018,09,27,00,10,15.60
2018,09,27,00,11,15.60
2018,09,27,00,12,15.60
2018,09,27,00,13,15.60
2018,09,27,00,14,15.60
2018,09,27,00,15,15.60
2018,09,27,00,16,15.60
2018,09,27,00,17,15.50
2018,09,27,00,18,15.50
2018,09,27,00,19,15.50
2018,09,27,00,20,15.40
2018,09,27,00,21,15.40
2018,09,27,00,22,15.40
2018,09,27,00,23,15.40
2018,09,27,00,24,15.40
2018,09,27,00,25,15.40
2018,09,27,00,26,15.40
2018,09,27,00,27,15.40
2018,09,27,00,28,15.30
2018,09,27,00,29,15.30
2018,09,27,00,30,15.30
2018,09,27,00,31,15.30
2018,09,27,00,32,15.30
2018,09,27,00,33,15.30
2018,09,27,00,34,15.30
2018,09,27,00,35,15.30
2018,09,27,00,36,15.30
2018,09,27,00,37,15.30
2018,09,27,00,38,15.30
2018,09,27,00,39,15.30
2018,09,27,00,40,15.30
2018,09,27,00,41,15.30
2018,09,27,00,42,15.30
2018,09,27,00,43,15.30
2018,09,27,00,44,15.30
2018,09,27,00,45,15.30
2018,09,27,00,46,15.30
2018,09,27,00,47,15.30
2018,09,27,00,48,15.30
2018,09,27,00,49,15.30
2018,09,27,00,50,15.30
2018,09,27,00,51,15.30
2018,09,27,00,52,15.30
2018,09,27,00,53,15.20
2018,09,27,00,54,15.20
2018,09,27,00,55,15.20
2018,09,27,00,56,15.20
2018,09,27,00,57,15.20
2018,09,27,00,58,15.20
2018,09,27,00,59,15.20
2018,09,27,01,00,15.20
2018,09,27,01,01,15.20
2018,09,27,01,02,15.20
2018,09,27,01,03,15.20
2018,09,27,01,04,15.20
2018,09,27,01,05,15.20
2018,09,27,01,06,15.20
2018,09,27,01,07,15.20
2018,09,27,01,08,15.20
2018,09,27,01,09,15.20
2018,09,27,01,10,15.20
2018,09,27,01,11,15.20
2018,09,27,01,12,15.20
2018,09,27,01,13,15.20
2018,09,27,01,14,15.20
2018,09,27,01,15,15.20
2018,09,27,01,16,15.20
2018,09,27,01,17,15.20
2018,09,27,01,18,15.10
2018,09,27,01,19,15.10
2018,09,27,01,20,15.10
2018,09,27,01,21,15.10
2018,09,27,01,22,15.10
2018,09,27,01,23,15.10
2018,09,27,01,24,15.10
2018,09,27,01,25,15.10
2018,09,27,01,26,15.10
2018,09,27,01,27,15.10
2018,09,27,01,28,15.10
2018,09,27,01,29,15.10
2018,09,27,01,30,15.10
2018,09,27,01,31,15.10
2018,09,27,01,32,15.10
2018,09,27,01,33,15.20
2018,09,27,01,34,15.20
2018,09,27,01,35,15.20
2018,09,27,01,36,15.10
2018,09,27,01,37,15.10
2018,09,27,01,38,15.10
2018,09,27,01,39,15.10
2018,09,27,01,40,15.10
2018,09,27,01,41,15.10
2018,09,27,01,42,15.10
2018,09,27,01,43,15.20
2018,09,27,01,44,15.20
2018,09,27,01,45,15.20
2018,09,27,01,46,15.20
2018,09,27,01,47,15.20
2018,09,27,01,48,15.20
2018,09,27,01,49,15.20
2018,09,27,01,50,15.20
2018,09,27,01,51,15.20
2018,09,27,01,52,15.20
2018,09,27,01,53,15.20
2018,09,27,01,54,15.20
2018,09,27,01,55,15.20
2018,09,27,01,56,15.10
2018,09,27,01,57,15.10
2018,09,27,01,58,15.10
2018,09,27,01,59,15.10
2018,09,27,02,00,15.10
2018,09,27,02,01,15.10
2018,09,27,02,02,15.10
2018,09,27,02,03,15.10
2018,09,27,02,04,15.10
2018,09,27,02,05,15.10
2018,09,27,02,06,15.10
2018,09,27,02,07,15.10
2018,09,27,02,08,15.10
2018,09,27,02,09,15.10
2018,09,27,02,10,15.10
2018,09,27,02,11,15.10
2018,09,27,02,12,15.10
2018,09,27,02,13,15.10
2018,09,27,02,14,15.10
2018,09,27,02,15,15.10
2018,09,27,02,16,15.10
2018,09,27,02,17,15.10
2018,09,27,02,18,15.10
2018,09,27,02,19,15.10
2018,09,27,02,20,15.10
2018,09,27,02,21,15.10
2018,09,27,02,22,15.10
2018,09,27,02,23,15.10
2018,09,27,02,24,15.10
2018,09,27,02,25,15.10
2018,09,27,02,26,15.10
2018,09,27,02,27,15.10
2018,09,27,02,28,15.00
2018,09,27,02,29,15.00
2018,09,27,02,30,15.00
2018,09,27,02,31,14.90
2018,09,27,02,32,14.90
2018,09,27,02,33,14.90
2018,09,27,02,34,14.90
2018,09,27,02,35,14.90
2018,09,27,02,36,14.80
2018,09,27,02,37,14.80
2018,09,27,02,38,14.80
2018,09,27,02,39,14.80
2018,09,27,02,40,14.80
2018,09,27,02,41,14.70
2018,09,27,02,42,14.70
2018,09,27,02,43,14.70
2018,09,27,02,44,14.70
2018,09,27,02,45,14.70
2018,09,27,02,46,14.70
2018,09,27,02,47,14.70
2018,09,27,02,48,14.70
2018,09,27,02,49,14.70
2018,09,27,02,50,14.70
2018,09,27,02,51,14.70
2018,09,27,02,52,14.60
2018,09,27,02,53,14.60
2018,09,27,02,54,14.60
2018,09,27,02,55,14.70
2018,09,27,02,56,14.70
2018,09,27,02,57,14.70
2018,09,27,02,58,14.70
2018,09,27,02,59,14.70
2018,09,27,03,00,14.70
2018,09,27,03,01,14.70
2018,09,27,03,02,14.70
2018,09,27,03,03,14.70
2018,09,27,03,04,14.70
2018,09,27,03,05,14.70
2018,09,27,03,06,14.70
2018,09,27,03,07,14.70
2018,09,27,03,08,14.70
2018,09,27,03,09,14.70
2018,09,27,03,10,14.70
2018,09,27,03,11,14.70
2018,09,27,03,12,14.70
2018,09,27,03,13,14.80
2018,09,27,03,14,14.70
2018,09,27,03,15,14.70
2018,09,27,03,16,14.70
2018,09,27,03,17,14.70
2018,09,27,03,18,14.70
2018,09,27,03,19,14.70
2018,09,27,03,20,14.70
2018,09,27,03,21,14.70
2018,09,27,03,22,14.70
2018,09,27,03,23,14.60
2018,09,27,03,24,14.60
2018,09,27,03,25,14.60
2018,09,27,03,26,14.60
2018,09,27,03,27,14.60
2018,09,27,03,28,14.60
2018,09,27,03,29,14.60
2018,09,27,03,30,14.60
2018,09,27,03,31,14.60
2018,09,27,03,32,14.50
2018,09,27,03,33,14.50
2018,09,27,03,34,14.50
2018,09,27,03,35,14.50
2018,09,27,03,36,14.50
2018,09,27,03,37,14.50
2018,09,27,03,38,14.40
2018,09,27,03,39,14.40
2018,09,27,03,40,14.40
2018,09,27,03,41,14.40
2018,09,27,03,42,14.40
2018,09,27,03,43,14.40
2018,09,27,03,44,14.30
2018,09,27,03,45,14.30
2018,09,27,03,46,14.30
2018,09,27,03,47,14.30
2018,09,27,03,48,14.30
2018,09,27,03,49,14.20
2018,09,27,03,50,14.20
2018,09,27,03,51,14.20
2018,09,27,03,52,14.20
2018,09,27,03,53,14.20
2018,09,27,03,54,14.30
2018,09,27,03,55,14.30
2018,09,27,03,56,14.30
2018,09,27,03,57,14.40
2018,09,27,03,58,14.40
2018,09,27,03,59,14.50
2018,09,27,04,00,14.50
2018,09,27,04,01,14.60
2018,09,27,04,02,14.60
2018,09,27,04,03,14.70
2018,09,27,04,04,14.70
2018,09,27,04,05,14.70
2018,09,27,04,06,14.70
2018,09,27,04,07,14.70
2018,09,27,04,08,14.70
2018,09,27,04,09,14.70
2018,09,27,04,10,14.70
2018,09,27,04,11,14.70
2018,09,27,04,12,14.70
2018,09,27,04,13,14.70
2018,09,27,04,14,14.70
2018,09,27,04,15,14.70
2018,09,27,04,16,14.70
2018,09,27,04,17,14.70
2018,09,27,04,18,14.70
2018,09,27,04,19,14.70
2018,09,27,04,20,14.70
2018,09,27,04,21,14.60
2018,09,27,04,22,14.60
2018,09,27,04,23,14.60
2018,09,27,04,24,14.60
2018,09,27,04,25,14.60
2018,09,27,04,26,14.60
2018,09,27,04,27,14.60
2018,09,27,04,28,14.50
2018,09,27,04,29,14.50
2018,09,27,04,30,14.50
2018,09,27,04,31,14.50
2018,09,27,04,32,14.40
2018,09,27,04,33,14.40
2018,09,27,04,34,14.40
2018,09,27,04,35,14.40
2018,09,27,04,36,14.40
2018,09,27,04,37,14.40
2018,09,27,04,38,14.40
2018,09,27,04,39,14.40
2018,09,27,04,40,14.30
2018,09,27,04,41,14.30
2018,09,27,04,42,14.30
2018,09,27,04,43,14.30
2018,09,27,04,44,14.30
2018,09,27,04,45,14.30
2018,09,27,04,46,14.30
2018,09,27,04,47,14.20
2018,09,27,04,48,14.20
2018,09,27,04,49,14.20
2018,09,27,04,50,14.20
2018,09,27,04,51,14.20
2018,09,27,04,52,14.20
2018,09,27,04,53,14.10
2018,09,27,04,54,14.10
2018,09,27,04,55,14.10
2018,09,27,04,56,14.10
2018,09,27,04,57,14.10
2018,09,27,04,58,14.10
2018,09,27,04,59,14.10
2018,09,27,05,00,14.10
2018,09,27,05,01,14.00
2018,09,27,05,02,14.00
2018,09,27,05,03,14.00
2018,09,27,05,04,14.00
2018,09,27,05,05,13.90
2018,09,27,05,06,13.90
2018,09,27,05,07,13.90
2018,09,27,05,08,13.90
2018,09,27,05,09,13.80
2018,09,27,05,10,13.80
2018,09,27,05,11,13.80
2018,09,27,05,12,13.70
2018,09,27,05,13,13.70
2018,09,27,05,14,13.70
2018,09,27,05,15,13.60
2018,09,27,05,16,13.60
2018,09,27,05,17,13.60
2018,09,27,05,18,13.70
2018,09,27,05,19,13.70
2018,09,27,05,20,13.80
2018,09,27,05,21,13.90
2018,09,27,05,22,14.10
2018,09,27,05,23,14.20
2018,09,27,05,24,14.30
2018,09,27,05,25,14.50
2018,09,27,05,26,14.60
2018,09,27,05,27,14.70
2018,09,27,05,28,14.80
2018,09,27,05,29,14.90
2018,09,27,05,30,14.90
2018,09,27,05,31,15.00
2018,09,27,05,32,15.00
2018,09,27,05,33,15.00
2018,09,27,05,34,15.10
2018,09,27,05,35,15.10
2018,09,27,05,36,15.10
2018,09,27,05,37,15.10
2018,09,27,05,38,15.10
2018,09,27,05,39,15.10
2018,09,27,05,40,15.10
2018,09,27,05,41,15.10
2018,09,27,05,42,15.10
2018,09,27,05,43,15.10
2018,09,27,05,44,15.10
2018,09,27,05,45,15.10
2018,09,27,05,46,15.10
2018,09,27,05,47,15.10
2018,09,27,05,48,15.10
2018,09,27,05,49,15.10
2018,09,27,05,50,15.10
2018,09,27,05,51,15.10
2018,09,27,05,52,15.10
2018,09,27,05,53,15.10
2018,09,27,05,54,15.00
2018,09,27,05,55,15.00
2018,09,27,05,56,15.00
2018,09,27,05,57,14.90
2018,09,27,05,58,14.90
2018,09,27,05,59,14.90
2018,09,27,06,00,14.90
2018,09,27,06,01,14.80
2018,09,27,06,02,14.80
2018,09,27,06,03,14.80
2018,09,27,06,04,14.70
2018,09,27,06,05,14.70
2018,09,27,06,06,14.70
2018,09,27,06,07,14.70
2018,09,27,06,08,14.70
2018,09,27,06,09,14.70
2018,09,27,06,10,14.60
2018,09,27,06,11,14.60
2018,09,27,06,12,14.60
2018,09,27,06,13,14.60
2018,09,27,06,14,14.60
2018,09,27,06,15,14.60
2018,09,27,06,16,14.50
2018,09,27,06,17,14.50
2018,09,27,06,18,14.50
2018,09,27,06,19,14.50
2018,09,27,06,20,14.50
2018,09,27,06,21,14.50
2018,09,27,06,22,14.50
2018,09,27,06,23,14.50
2018,09,27,06,24,14.50
2018,09,27,06,25,14.50
2018,09,27,06,26,14.50
2018,09,27,06,27,14.60
2018,09,27,06,28,14.60
2018,09,27,06,29,14.60
2018,09,27,06,30,14.60
2018,09,27,06,31,14.60
2018,09,27,06,32,14.60
2018,09,27,06,33,14.60
2018,09,27,06,34,14.60
2018,09,27,06,35,14.60
2018,09,27,06,36,14.60
2018,09,27,06,37,14.60
2018,09,27,06,38,14.60
2018,09,27,06,39,14.60
2018,09,27,06,40,14.60
2018,09,27,06,41,14.60
2018,09,27,06,42,14.60
2018,09,27,06,43,14.50
2018,09,27,06,44,14.50
2018,09,27,06,45,14.50
2018,09,27,06,46,14.50
2018,09,27,06,47,14.50
2018,09,27,06,48,14.50
2018,09,27,06,49,14.50
2018,09,27,06,50,14.60
2018,09,27,06,51,14.60
2018,09,27,06,52,14.70
2018,09,27,06,53,14.80
2018,09,27,06,54,14.80
2018,09,27,06,55,14.90
2018,09,27,06,56,14.90
2018,09,27,06,57,15.00
2018,09,27,06,58,15.00
2018,09,27,06,59,15.10
2018,09,27,07,00,15.10
2018,09,27,07,01,15.20
2018,09,27,07,02,15.30
2018,09,27,07,03,15.30
2018,09,27,07,04,15.40
2018,09,27,07,05,15.40
2018,09,27,07,06,15.50
2018,09,27,07,07,15.50
2018,09,27,07,08,15.60
2018,09,27,07,09,15.60
2018,09,27,07,10,15.60
2018,09,27,07,11,15.70
2018,09,27,07,12,15.70
2018,09,27,07,13,15.70
2018,09,27,07,14,15.70
2018,09,27,07,15,15.60
2018,09,27,07,16,15.60
2018,09,27,07,17,15.60
2018,09,27,07,18,15.60
2018,09,27,07,19,15.60
2018,09,27,07,20,15.60
2018,09,27,07,21,15.50
2018,09,27,07,22,15.50
2018,09,27,07,23,15.50
2018,09,27,07,24,15.40
2018,09,27,07,25,15.40
2018,09,27,07,26,15.40
2018,09,27,07,27,15.30
2018,09,27,07,28,15.30
2018,09,27,07,29,15.30
2018,09,27,07,30,15.30
2018,09,27,07,31,15.20
2018,09,27,07,32,15.20
2018,09,27,07,33,15.20
2018,09,27,07,34,15.20
2018,09,27,07,35,15.30
2018,09,27,07,36,15.30
2018,09,27,07,37,15.30
2018,09,27,07,38,15.30
2018,09,27,07,39,15.30
2018,09,27,07,40,15.30
2018,09,27,07,41,15.30
2018,09,27,07,42,15.30
2018,09,27,07,43,15.30
2018,09,27,07,44,15.30
2018,09,27,07,45,15.30
2018,09,27,07,46,15.30
2018,09,27,07,47,15.30
2018,09,27,07,48,15.30
2018,09,27,07,49,15.30
2018,09,27,07,50,15.30
2018,09,27,07,51,15.30
2018,09,27,07,52,15.30
2018,09,27,07,53,15.30
2018,09,27,07,54,15.30
2018,09,27,07,55,15.30
2018,09,27,07,56,15.30
2018,09,27,07,57,15.30
2018,09,27,07,58,15.30
2018,09,27,07,59,15.20
2018,09,27,08,00,15.20
2018,09,27,08,01,15.20
2018,09,27,08,02,15.20
2018,09,27,08,03,15.20
2018,09,27,08,04,15.20
2018,09,27,08,05,15.20
2018,09,27,08,06,15.20
2018,09,27,08,07,15.20
2018,09,27,08,08,15.20
2018,09,27,08,09,15.20
2018,09,27,08,10,15.20
2018,09,27,08,11,15.20
2018,09,27,08,12,15.20
2018,09,27,08,13,15.20
2018,09,27,08,14,15.20
2018,09,27,08,15,15.20
2018,09,27,08,16,15.20
2018,09,27,08,17,15.20
2018,09,27,08,18,15.20
2018,09,27,08,19,15.30
2018,09,27,08,20,15.30
2018,09,27,08,21,15.30
2018,09,27,08,22,15.30
2018,09,27,08,23,15.30
2018,09,27,08,24,15.30
2018,09,27,08,25,15.40
2018,09,27,08,26,15.40
2018,09,27,08,27,15.40
2018,09,27,08,28,15.50
2018,09,27,08,29,15.50
2018,09,27,08,30,15.50
2018,09,27,08,31,15.60
2018,09,27,08,32,15.60
2018,09,27,08,33,15.60
2018,09,27,08,34,15.70
2018,09,27,08,35,15.70
2018,09,27,08,36,15.70
2018,09,27,08,37,15.80
2018,09,27,08,38,15.80
2018,09,27,08,39,15.80
2018,09,27,08,40,15.80
2018,09,27,08,41,15.80
2018,09,27,08,42,15.80
2018,09,27,08,43,15.90
2018,09,27,08,44,15.90
2018,09,27,08,45,15.90
2018,09,27,08,46,15.90
2018,09,27,08,47,16.00
2018,09,27,08,48,16.00
2018,09,27,08,49,16.10
2018,09,27,08,50,16.10
2018,09,27,08,51,16.10
2018,09,27,08,52,16.10
2018,09,27,08,53,16.20
2018,09,27,08,54,16.20
2018,09,27,08,55,16.20
2018,09,27,08,56,16.30
2018,09,27,08,57,16.30
2018,09,27,08,58,16.30
2018,09,27,08,59,16.30
2018,09,27,09,00,16.40
2018,09,27,09,01,16.40
2018,09,27,09,02,16.40
2018,09,27,09,03,16.40
2018,09,27,09,04,16.50
2018,09,27,09,05,16.50
2018,09,27,09,06,16.50
2018,09,27,09,07,16.60
2018,09,27,09,08,16.60
2018,09,27,09,09,16.70
2018,09,27,09,10,16.70
2018,09,27,09,11,16.80
2018,09,27,09,12,16.80
2018,09,27,09,13,16.90
2018,09,27,09,14,16.90
2018,09,27,09,15,17.00
2018,09,27,09,16,17.00
2018,09,27,09,17,17.00
2018,09,27,09,18,17.10
2018,09,27,09,19,17.10
2018,09,27,09,20,17.10
2018,09,27,09,21,17.10
2018,09,27,09,22,17.10
2018,09,27,09,23,17.20
2018,09,27,09,24,17.20
2018,09,27,09,25,17.20
2018,09,27,09,26,17.20
2018,09,27,09,27,17.30
2018,09,27,09,28,17.30
2018,09,27,09,29,17.30
2018,09,27,09,30,17.40
2018,09,27,09,31,17.40
2018,09,27,09,32,17.40
2018,09,27,09,33,17.40
2018,09,27,09,34,17.40
2018,09,27,09,35,17.50
2018,09,27,09,36,17.50
2018,09,27,09,37,17.60
2018,09,27,09,38,17.60
2018,09,27,09,39,17.60
2018,09,27,09,40,17.70
2018,09,27,09,41,17.70
2018,09,27,09,42,17.70
2018,09,27,09,43,17.70
2018,09,27,09,44,17.70
2018,09,27,09,45,17.70
2018,09,27,09,46,17.70
2018,09,27,09,47,17.70
2018,09,27,09,48,17.70
2018,09,27,09,49,17.70
2018,09,27,09,50,17.70
2018,09,27,09,51,17.80
2018,09,27,09,52,17.80
2018,09,27,09,53,17.80
2018,09,27,09,54,17.90
2018,09,27,09,55,17.90
2018,09,27,09,56,17.90
2018,09,27,09,57,17.90
2018,09,27,09,58,18.00
2018,09,27,09,59,18.10
2018,09,27,10,00,18.10
2018,09,27,10,01,18.10
2018,09,27,10,02,18.10
2018,09,27,10,03,18.10
2018,09,27,10,04,18.10
2018,09,27,10,05,18.10
2018,09,27,10,06,18.10
2018,09,27,10,07,18.10
2018,09,27,10,08,18.20
2018,09,27,10,09,18.20
2018,09,27,10,10,18.20
2018,09,27,10,11,18.30
2018,09,27,10,12,18.30
2018,09,27,10,13,18.30
2018,09,27,10,14,18.40
2018,09,27,10,15,18.40
2018,09,27,10,16,18.40
2018,09,27,10,17,18.40
2018,09,27,10,18,18.40
2018,09,27,10,19,18.40
2018,09,27,10,20,18.40
2018,09,27,10,21,18.40
2018,09,27,10,22,18.40
2018,09,27,10,23,18.40
2018,09,27,10,24,18.40
2018,09,27,10,25,18.40
2018,09,27,10,26,18.40
2018,09,27,10,27,18.50
2018,09,27,10,28,18.50
2018,09,27,10,29,18.50
2018,09,27,10,30,18.50
2018,09,27,10,31,18.50
2018,09,27,10,32,18.60
2018,09,27,10,33,18.60
2018,09,27,10,34,18.70
2018,09,27,10,35,18.70
2018,09,27,10,36,18.70
2018,09,27,10,37,18.80
2018,09,27,10,38,18.80
2018,09,27,10,39,18.80
2018,09,27,10,40,18.80
2018,09,27,10,41,18.80
2018,09,27,10,42,18.80
2018,09,27,10,43,18.90
2018,09,27,10,44,19.00
2018,09,27,10,45,19.00
2018,09,27,10,46,19.10
2018,09,27,10,47,19.20
2018,09,27,10,48,19.20
2018,09,27,10,49,19.10
2018,09,27,10,50,19.10
2018,09,27,10,51,19.10
2018,09,27,10,52,19.10
2018,09,27,10,53,19.10
2018,09,27,10,54,19.10
2018,09,27,10,55,19.10
2018,09,27,10,56,19.10
2018,09,27,10,57,19.10
2018,09,27,10,58,19.10
2018,09,27,10,59,19.10
2018,09,27,11,00,19.10
2018,09,27,11,01,19.20
2018,09,27,11,02,19.20
2018,09,27,11,03,19.30
2018,09,27,11,04,19.30
2018,09,27,11,05,19.30
2018,09,27,11,06,19.30
2018,09,27,11,07,19.30
2018,09,27,11,08,19.30
2018,09,27,11,09,19.30
2018,09,27,11,10,19.30
2018,09,27,11,11,19.30
2018,09,27,11,12,19.30
2018,09,27,11,13,19.40
2018,09,27,11,14,19.40
2018,09,27,11,15,19.50
2018,09,27,11,16,19.50
2018,09,27,11,17,19.50
2018,09,27,11,18,19.50
2018,09,27,11,19,19.50
2018,09,27,11,20,19.50
2018,09,27,11,21,19.50
2018,09,27,11,22,19.60
2018,09,27,11,23,19.60
2018,09,27,11,24,19.70
2018,09,27,11,25,19.70
2018,09,27,11,26,19.80
2018,09,27,11,27,19.80
2018,09,27,11,28,19.80
2018,09,27,11,29,19.80
2018,09,27,11,30,19.90
2018,09,27,11,31,19.90
2018,09,27,11,32,19.90
2018,09,27,11,33,20.00
2018,09,27,11,34,20.00
2018,09,27,11,35,20.00
2018,09,27,11,36,20.00
2018,09,27,11,37,20.10
2018,09,27,11,38,20.10
2018,09,27,11,39,20.20
2018,09,27,11,40,20.20
2018,09,27,11,41,20.30
2018,09,27,11,42,20.30
2018,09,27,11,43,20.40
2018,09,27,11,44,20.40
2018,09,27,11,45,20.40
2018,09,27,11,46,20.30
2018,09,27,11,47,20.20
2018,09,27,11,48,20.20
2018,09,27,11,49,20.10
2018,09,27,11,50,20.10
2018,09,27,11,51,20.00
2018,09,27,11,52,20.00
2018,09,27,11,53,19.90
2018,09,27,11,54,19.90
2018,09,27,11,55,20.00
2018,09,27,11,56,20.00
2018,09,27,11,57,20.00
2018,09,27,11,58,20.00
2018,09,27,11,59,20.10
2018,09,27,12,00,20.10
2018,09,27,12,01,20.10
2018,09,27,12,02,20.20
2018,09,27,12,03,20.20
2018,09,27,12,04,20.30
2018,09,27,12,05,20.40
2018,09,27,12,06,20.40
2018,09,27,12,07,20.40
2018,09,27,12,08,20.40
2018,09,27,12,09,20.50
2018,09,27,12,10,20.60
2018,09,27,12,11,20.60
2018,09,27,12,12,20.70
2018,09,27,12,13,20.70
2018,09,27,12,14,20.80
2018,09,27,12,15,20.90
2018,09,27,12,16,21.00
2018,09,27,12,17,21.00
2018,09,27,12,18,21.10
2018,09,27,12,19,21.10
2018,09,27,12,20,21.20
2018,09,27,12,21,21.30
2018,09,27,12,22,21.30
2018,09,27,12,23,21.30
2018,09,27,12,24,21.30
2018,09,27,12,25,21.20
2018,09,27,12,26,21.20
2018,09,27,12,27,21.20
2018,09,27,12,28,21.20
2018,09,27,12,29,21.20
2018,09,27,12,30,21.20
2018,09,27,12,31,21.20
2018,09,27,12,32,21.20
2018,09,27,12,33,21.20
2018,09,27,12,34,21.20
2018,09,27,12,35,21.20
2018,09,27,12,36,21.20
2018,09,27,12,37,21.20
2018,09,27,12,38,21.30
2018,09,27,12,39,21.30
2018,09,27,12,40,21.30
2018,09,27,12,41,21.30
2018,09,27,12,42,21.40
2018,09,27,12,43,21.40
2018,09,27,12,44,21.50
2018,09,27,12,45,21.50
2018,09,27,12,46,21.50
2018,09,27,12,47,21.60
2018,09,27,12,48,21.70
2018,09,27,12,49,21.70
2018,09,27,12,50,21.80
2018,09,27,12,51,21.80
2018,09,27,12,52,21.80
2018,09,27,12,53,21.80
2018,09,27,12,54,21.80
2018,09,27,12,55,21.80
2018,09,27,12,56,21.90
2018,09,27,12,57,22.00
2018,09,27,12,58,22.10
2018,09,27,12,59,22.10
2018,09,27,13,00,22.10
2018,09,27,13,01,22.10
2018,09,27,13,02,22.00
2018,09,27,13,03,21.90
2018,09,27,13,04,21.90
2018,09,27,13,05,21.80
2018,09,27,13,06,21.70
2018,09,27,13,07,21.70
2018,09,27,13,08,21.70
2018,09,27,13,09,21.80
2018,09,27,13,10,21.80
2018,09,27,13,11,21.80
2018,09,27,13,12,21.80
2018,09,27,13,13,21.80
2018,09,27,13,14,21.80
2018,09,27,13,15,21.80
2018,09,27,13,16,21.80
2018,09,27,13,17,21.80
2018,09,27,13,18,21.80
2018,09,27,13,19,21.80
2018,09,27,13,20,21.80
2018,09,27,13,21,21.80
2018,09,27,13,22,21.90
2018,09,27,13,23,21.90
2018,09,27,13,24,21.90
2018,09,27,13,25,21.90
2018,09,27,13,26,21.90
2018,09,27,13,27,21.90
2018,09,27,13,28,21.90
2018,09,27,13,29,21.90
2018,09,27,13,30,22.00
2018,09,27,13,31,22.10
2018,09,27,13,32,22.10
2018,09,27,13,33,22.10
2018,09,27,13,34,22.10
2018,09,27,13,35,22.10
2018,09,27,13,36,22.10
2018,09,27,13,37,22.10
2018,09,27,13,38,22.10
2018,09,27,13,39,22.10
2018,09,27,13,40,22.10
2018,09,27,13,41,22.00
2018,09,27,13,42,22.00
2018,09,27,13,43,21.90
2018,09,27,13,44,22.00
2018,09,27,13,45,22.00
2018,09,27,13,46,22.10
2018,09,27,13,47,22.10
2018,09,27,13,48,22.20
2018,09,27,13,49,22.20
2018,09,27,13,50,22.20
2018,09,27,13,51,22.30
2018,09,27,13,52,22.30
2018,09,27,13,53,22.30
2018,09,27,13,54,22.30
2018,09,27,13,55,22.30
2018,09,27,13,56,22.40
2018,09,27,13,57,22.40
2018,09,27,13,58,22.50
2018,09,27,13,59,22.60
2018,09,27,14,00,22.60
2018,09,27,14,01,22.70
2018,09,27,14,02,22.70
2018,09,27,14,03,22.70
2018,09,27,14,04,22.70
2018,09,27,14,05,22.70
2018,09,27,14,06,22.70
2018,09,27,14,07,22.70
2018,09,27,14,08,22.80
2018,09,27,14,09,22.80
2018,09,27,14,10,22.90
2018,09,27,14,11,22.90
2018,09,27,14,12,22.90
2018,09,27,14,13,22.90
2018,09,27,14,14,22.90
2018,09,27,14,15,22.90
2018,09,27,14,16,22.90
2018,09,27,14,17,22.90
2018,09,27,14,18,22.90
2018,09,27,14,19,22.80
2018,09,27,14,20,22.80
2018,09,27,14,21,22.80
2018,09,27,14,22,22.80
2018,09,27,14,23,22.80
2018,09,27,14,24,22.80
2018,09,27,14,25,22.80
2018,09,27,14,26,22.90
2018,09,27,14,27,22.90
2018,09,27,14,28,22.80
2018,09,27,14,29,22.80
2018,09,27,14,30,22.80
2018,09,27,14,31,22.80
2018,09,27,14,32,22.70
2018,09,27,14,33,22.70
2018,09,27,14,34,22.70
2018,09,27,14,35,22.70
2018,09,27,14,36,22.60
2018,09,27,14,37,22.60
2018,09,27,14,38,22.60
2018,09,27,14,39,22.70
2018,09,27,14,40,22.70
2018,09,27,14,41,22.70
2018,09,27,14,42,22.70
2018,09,27,14,43,22.70
2018,09,27,14,44,22.70
2018,09,27,14,45,22.70
2018,09,27,14,46,22.70
2018,09,27,14,47,22.70
2018,09,27,14,48,22.70
2018,09,27,14,49,22.80
2018,09,27,14,50,22.80
2018,09,27,14,51,22.70
2018,09,27,14,52,22.80
2018,09,27,14,53,22.80
2018,09,27,14,54,22.80
2018,09,27,14,55,22.80
2018,09,27,14,56,22.80
2018,09,27,14,57,22.70
2018,09,27,14,58,22.70
2018,09,27,14,59,22.60
2018,09,27,15,00,22.60
2018,09,27,15,01,22.60
2018,09,27,15,02,22.60
2018,09,27,15,03,22.60
2018,09,27,15,04,22.60
2018,09,27,15,05,22.60
2018,09,27,15,06,22.60
2018,09,27,15,07,22.60
2018,09,27,15,08,22.60
2018,09,27,15,09,22.60
2018,09,27,15,10,22.60
2018,09,27,15,11,22.60
2018,09,27,15,12,22.60
2018,09,27,15,13,22.70
2018,09,27,15,14,22.70
2018,09,27,15,15,22.70
2018,09,27,15,16,22.70
2018,09,27,15,17,22.80
2018,09,27,15,18,22.80
2018,09,27,15,19,22.80
2018,09,27,15,20,22.70
2018,09,27,15,21,22.60
2018,09,27,15,22,22.60
2018,09,27,15,23,22.50
2018,09,27,15,24,22.50
2018,09,27,15,25,22.50
2018,09,27,15,26,22.50
2018,09,27,15,27,22.40
2018,09,27,15,28,22.50
2018,09,27,15,29,22.50
2018,09,27,15,30,22.50
2018,09,27,15,31,22.50
2018,09,27,15,32,22.50
2018,09,27,15,33,22.40
2018,09,27,15,34,22.40
2018,09,27,15,35,22.40
2018,09,27,15,36,22.40
2018,09,27,15,37,22.40
2018,09,27,15,38,22.30
2018,09,27,15,39,22.40
2018,09,27,15,40,22.40
2018,09,27,15,41,22.40
2018,09,27,15,42,22.50
2018,09,27,15,43,22.50
2018,09,27,15,44,22.50
2018,09,27,15,45,22.50
2018,09,27,15,46,22.50
2018,09,27,15,47,22.50
2018,09,27,15,48,22.50
2018,09,27,15,49,22.50
2018,09,27,15,50,22.60
2018,09,27,15,51,22.60
2018,09,27,15,52,22.60
2018,09,27,15,53,22.60
2018,09,27,15,54,22.60
2018,09,27,15,55,22.60
2018,09,27,15,56,22.60
2018,09,27,15,57,22.50
2018,09,27,15,58,22.50
2018,09,27,15,59,22.50
2018,09,27,16,00,22.60
2018,09,27,16,01,22.50
2018,09,27,16,02,22.50
2018,09,27,16,03,22.40
2018,09,27,16,04,22.40
2018,09,27,16,05,22.40
2018,09,27,16,06,22.30
2018,09,27,16,07,22.30
2018,09,27,16,08,22.30
2018,09,27,16,09,22.30
2018,09,27,16,10,22.30
2018,09,27,16,11,22.20
2018,09,27,16,12,22.20
2018,09,27,16,13,22.20
2018,09,27,16,14,22.20
2018,09,27,16,15,22.20
2018,09,27,16,16,22.20
2018,09,27,16,17,22.20
2018,09,27,16,18,22.20
2018,09,27,16,19,22.20
2018,09,27,16,20,22.20
2018,09,27,16,21,22.30
2018,09,27,16,22,22.30
2018,09,27,16,23,22.30
2018,09,27,16,24,22.30
2018,09,27,16,25,22.30
2018,09,27,16,26,22.30
2018,09,27,16,27,22.30
2018,09,27,16,28,22.20
2018,09,27,16,29,22.20
2018,09,27,16,30,22.20
2018,09,27,16,31,22.20
2018,09,27,16,32,22.20
2018,09,27,16,33,22.20
2018,09,27,16,34,22.20
2018,09,27,16,35,22.20
2018,09,27,16,36,22.20
2018,09,27,16,37,22.20
2018,09,27,16,38,22.20
2018,09,27,16,39,22.20
2018,09,27,16,40,22.20
2018,09,27,16,41,22.20
2018,09,27,16,42,22.20
2018,09,27,16,43,22.20
2018,09,27,16,44,22.20
2018,09,27,16,45,22.20
2018,09,27,16,46,22.20
2018,09,27,16,47,22.10
2018,09,27,16,48,22.10
2018,09,27,16,49,22.10
2018,09,27,16,50,22.10
2018,09,27,16,51,22.10
2018,09,27,16,52,22.10
2018,09,27,16,53,22.10
2018,09,27,16,54,22.10
2018,09,27,16,55,22.20
2018,09,27,16,56,22.20
2018,09,27,16,57,22.20
2018,09,27,16,58,22.20
2018,09,27,16,59,22.10
2018,09,27,17,00,22.10
2018,09,27,17,01,22.10
2018,09,27,17,02,22.10
2018,09,27,17,03,22.10
2018,09,27,17,04,22.10
2018,09,27,17,05,22.10
2018,09,27,17,06,22.10
2018,09,27,17,07,22.10
2018,09,27,17,08,22.10
2018,09,27,17,09,22.10
2018,09,27,17,10,22.10
2018,09,27,17,11,22.10
2018,09,27,17,12,22.10
2018,09,27,17,13,22.10
2018,09,27,17,14,22.10
2018,09,27,17,15,22.10
2018,09,27,17,16,22.10
2018,09,27,17,17,22.00
2018,09,27,17,18,22.00
2018,09,27,17,19,22.00